Weather History for KBNO - February, 2014

Change the Weather History Date:

Thursday, February 13, 2014

  Actual Average Record
Temperature  
Mean Temperature 40 °F 28 °F  
Max Temperature 47 °F 39 °F 58 °F (1977)
Min Temperature 33 °F 18 °F -6 °F (1949)
Degree Days  
Heating Degree Days 25 37  
Month to date heating degree days 483 495  
Since 1 July heating degree days 4893 5008  
Cooling Degree Days 0 0  
Month to date cooling degree days 0 0  
Year to date cooling degree days 0 0  
Moisture  
Dew Point 34 °F    
Average Humidity 77    
Maximum Humidity 96    
Minimum Humidity 58    
Precipitation  
Precipitation 0.00 in 0.04 in 0.83 in (1957)
Month to date precipitation 1.19 0.46  
Year to date precipitation 1.69 1.65  
Sea Level Pressure  
Sea Level Pressure 30.07 in    
Wind  
Wind Speed 7 mph (SSE)    
Max Wind Speed 20 mph    
Max Gust Speed 23 mph    
Visibility 10 miles    
Events      
T = Trace of Precipitation, MM = Missing Value Source: NWS Daily Summary

Daily Weather History Graph

Daily Weather History Graph

Search for Another Location

Airport or City:

Trip Planner

Search our weather history database for the weather conditions in past years. The results will help you decide how hot, cold, wet, or windy it might be!

Date:

Astronomy

Feb. 13, 2014 Rise Set
Actual Time 6:56 AM PST 5:23 PM PST
Civil Twilight 6:27 AM PST 5:53 PM PST
Nautical Twilight 5:53 AM PST 6:26 PM PST
Astronomical Twilight 5:20 AM PST 7:00 PM PST
Moon 4:36 PM PST (2/13) 5:53 AM PST (2/13)
Length of Visible Light 11h 25m
Length of Day
10h 26m
Waxing Gibbous, 99% of the Moon is Illuminated
Feb 13
Waxing Gibbous
Feb 14
Full
Feb 22
Last Quarter
Mar 1
New
Mar 8
First Quarter

Hourly Weather History & Observations

Time (PST) Temp. Windchill Dew Point Humidity Pressure Visibility Wind Dir Wind Speed Gust Speed Precip Events Conditions
12:53 AM 37.9 °F 30.5 °F 36.0 °F 93% 30.01 in 10.0 mi SSE 11.5 mph - N/A   Mostly Cloudy
1:53 AM 37.9 °F 32.7 °F 36.0 °F 93% 30.01 in 10.0 mi SE 6.9 mph - N/A   Overcast
2:53 AM 36.0 °F 32.1 °F 34.0 °F 93% 30.00 in 10.0 mi SE 4.6 mph - N/A   Partly Cloudy
3:53 AM 35.1 °F 29.3 °F 34.0 °F 96% 30.01 in 10.0 mi SE 6.9 mph - N/A   Mostly Cloudy
4:53 AM 37.9 °F 35.5 °F 35.1 °F 89% 30.01 in 10.0 mi ESE 3.5 mph - N/A   Overcast
5:53 AM 39.0 °F 36.8 °F 35.1 °F 86% 30.03 in 10.0 mi South 3.5 mph - N/A   Overcast
6:53 AM 36.0 °F 30.3 °F 34.0 °F 93% 30.04 in 10.0 mi SSE 6.9 mph - N/A   Overcast
7:53 AM 39.0 °F 35.7 °F 34.0 °F 82% 30.04 in 10.0 mi SE 4.6 mph - N/A   Overcast
8:53 AM 42.1 °F 40.2 °F 35.1 °F 76% 30.06 in 10.0 mi SSW 3.5 mph - N/A   Overcast
9:53 AM 42.1 °F 36.1 °F 36.0 °F 79% 30.12 in 10.0 mi WSW 10.4 mph - N/A   Mostly Cloudy
10:53 AM 42.1 °F 34.9 °F 34.0 °F 73% 30.13 in 10.0 mi WSW 13.8 mph 20.7 mph N/A   Overcast
11:53 AM 44.1 °F 38.6 °F 34.0 °F 68% 30.13 in 10.0 mi WSW 10.4 mph - N/A   Overcast
12:53 PM 44.1 °F 37.4 °F 33.1 °F 65% 30.12 in 10.0 mi West 13.8 mph - N/A   Overcast
1:53 PM 46.9 °F - 33.1 °F 59% 30.10 in 10.0 mi West 11.5 mph - N/A   Partly Cloudy
2:53 PM 45.0 °F 40.1 °F 32.0 °F 60% 30.11 in 10.0 mi West 9.2 mph - N/A   Clear
3:53 PM 46.0 °F - 32.0 °F 58% 30.11 in 10.0 mi Calm Calm - N/A   Clear
4:53 PM 41.0 °F 36.4 °F 30.9 °F 67% 30.13 in 10.0 mi SW 6.9 mph - N/A   Clear
5:53 PM 36.0 °F 29.6 °F 32.0 °F 86% 30.12 in 10.0 mi ESE 8.1 mph - N/A   Clear
6:53 PM 36.0 °F 33.3 °F 33.1 °F 89% 30.12 in 10.0 mi East 3.5 mph - N/A   Clear
7:53 PM 36.0 °F 31.1 °F 33.1 °F 89% 30.09 in 10.0 mi ESE 5.8 mph - N/A   Clear
8:53 PM 34.0 °F - 32.0 °F 92% 30.08 in 10.0 mi Calm Calm - N/A   Clear
9:53 PM 35.1 °F 32.2 °F 32.0 °F 89% 30.07 in 10.0 mi North 3.5 mph - N/A   Scattered Clouds
10:53 PM 34.0 °F 29.8 °F 32.0 °F 92% 30.05 in 10.0 mi East 4.6 mph - N/A   Overcast
11:53 PM 34.0 °F 29.8 °F 32.0 °F 92% 30.03 in 10.0 mi ENE 4.6 mph - N/A   Overcast